YAHSAT 1B

Last updated on Tue Oct 15 2024 00:02:39 GMT+0000 (Coordinated Universal Time)

1 38245U 12016A 24288.48860332 .00000124 00000+0 00000+0 0 9995 2 38245 0.0335 97.5530 0001923 121.5823 27.9078 1.00269478 39474
UTC large
Height (km)
Speed (km/s)
/
Latitude / Longitude
Inclination (degrees)
Orbital Period (minutes)
Azimuth
Elevation
Range (km)
Doppler Factor

Next 0 passes for location: London (51.5072 / 0.1276)

Sorry there are no passes over London.